Le Boreal — FLSY — position and weather

sailwx.info

Track history (hours):
 
Tides and Currents Weather Stations Pressure Air Temp Water Temp Dewpoint Dewpoint Depression Visibility Wind Speed Wind Dir Waves Ship Positions

Le Boreal

Last reported at 2014-Jul-28 08:29 UTC. Time now 2014-Aug-01 13:59 UTC.
Position N 66°35' E 012°59'.

Length 142 m; draft 5 m.

Type: Passenger vessel. MMSI: 578000500.

Date/timePositionNaut miles runAvg speedWind from/ knotsBaromVisibWave heightAir tempDewpointWater temp
2014-Jul-28 08:29N 66°35' E 012°59'4 3.8
2014-Jul-28 07:30N 66°31' E 012°58'8 8.1
2014-Jul-28 06:32N 66°23' E 012°58'88 3.6
2014-Jul-27 06:22N 65°01' E 011°41'1012.6
2014-Jul-27 05:33N 64°55' E 011°23'  
2014-Jul-23 16:33N 60°24' E 005°17'1 1.1
2014-Jul-23 15:32N 60°24' E 005°19'0 0.0
2014-Jul-23 14:32N 60°24' E 005°19'0 0.0
2014-Jul-23 13:32N 60°24' E 005°19'0 0.0
2014-Jul-23 12:32N 60°24' E 005°19'0 0.0
2014-Jul-23 11:32N 60°24' E 005°19'0 0.0
2014-Jul-23 10:26N 60°24' E 005°19'0 0.0
2014-Jul-23 09:32N 60°24' E 005°19'0 0.0
2014-Jul-23 08:32N 60°24' E 005°19'0 0.0
2014-Jul-23 07:32N 60°24' E 005°19'0 0.0
2014-Jul-23 06:32N 60°24' E 005°19'77 9.2
2014-Jul-22 22:10N 59°08' E 004°51'913.7
2014-Jul-22 21:32N 59°00' E 004°57'1313.3
2014-Jul-22 20:33N 58°48' E 005°06'1713.3
2014-Jul-22 19:16N 58°32' E 005°16'1313.6
2014-Jul-22 18:19N 58°21' E 005°29'911.4
2014-Jul-22 17:33N 58°15' E 005°41'1110.8
2014-Jul-22 16:33N 58°08' E 005°57'7213.3
2014-Jul-22 11:08N 57°48' E 008°08'6613.2
2014-Jul-22 06:08N 57°49' E 010°12'813.1
2014-Jul-22 05:33N 57°48' E 010°26'1312.7
2014-Jul-22 04:33N 57°46' E 010°50'1413.7
2014-Jul-22 03:33N 57°36' E 011°08'1313.3
2014-Jul-22 02:33N 57°27' E 011°26'1413.9
2014-Jul-22 01:33N 57°14' E 011°35'1413.7
2014-Jul-22 00:33N 57°01' E 011°44'1414.0
2014-Jul-21 23:34N 56°48' E 011°52'1514.8
2014-Jul-21 22:32N 56°33' E 011°59'1414.2
2014-Jul-21 21:33N 56°20' E 012°05'1313.1
2014-Jul-21 20:33N 56°11' E 012°23'414.1
2014-Jul-21 20:18N 56°09' E 012°28'1114.7
2014-Jul-21 19:33N 56°01' E 012°41'1313.5
2014-Jul-21 18:33N 55°48' E 012°42'7 7.1
2014-Jul-21 17:33N 55°41' E 012°36'0 0.0
2014-Jul-21 16:33N 55°41' E 012°36'0 0.0
2014-Jul-21 15:32N 55°41' E 012°36'0 0.0
2014-Jul-21 14:32N 55°41' E 012°36'0 0.0
2014-Jul-21 13:32N 55°41' E 012°36'0 0.0
2014-Jul-21 12:32N 55°41' E 012°36'0 0.0
2014-Jul-21 11:32N 55°41' E 012°36'0 0.0
2014-Jul-21 10:32N 55°41' E 012°36'0 0.0
2014-Jul-21 09:32N 55°41' E 012°36'0 0.0
2014-Jul-21 08:32N 55°41' E 012°36'0 0.0
2014-Jul-21 07:32N 55°41' E 012°36'0 0.0
2014-Jul-21 06:32N 55°41' E 012°36'0 0.0
2014-Jul-21 05:30N 55°41' E 012°36'1 1.4
2014-Jul-21 04:33N 55°42' E 012°38'1211.6
2014-Jul-21 03:33N 55°31' E 012°43'1211.7
2014-Jul-21 02:33N 55°19' E 012°42'1212.2
2014-Jul-21 01:33N 55°15' E 013°02'1413.6
2014-Jul-21 00:32N 55°14' E 013°27'1313.7
2014-Jul-20 23:33N 55°14' E 013°50'1413.9
2014-Jul-20 22:33N 55°13' E 014°14'1313.3
2014-Jul-20 21:33N 55°23' E 014°31'1313.1
2014-Jul-20 20:33N 55°31' E 014°49'1313.3
2014-Jul-20 19:33N 55°38' E 015°09'1413.5
2014-Jul-20 18:33N 55°44' E 015°30'1413.7
2014-Jul-20 17:33N 55°51' E 015°51'1413.7
2014-Jul-20 16:33N 55°58' E 016°12'18613.8
2014-Jul-20 03:03N 58°03' E 020°25'167 7.1
2014-Jul-19 03:30N 59°39' E 024°49'2412.4
2014-Jul-19 01:33N 59°50' E 025°32'2914.4
2014-Jul-18 23:34N 60°00' E 026°26'1514.8
2014-Jul-18 22:34N 59°60' E 026°55'1514.6
2014-Jul-18 21:33N 60°05' E 027°23'1514.8
2014-Jul-18 20:33N 60°11' E 027°49'7512.5
2014-Jul-18 14:33N 59°55' E 030°16'1 1.2
2014-Jul-18 13:32N 59°56' E 030°17'0 0.0
2014-Jul-18 12:32N 59°56' E 030°17'0 0.0
2014-Jul-18 11:32N 59°56' E 030°17'0 0.0
2014-Jul-18 10:32N 59°56' E 030°17'0 0.0
2014-Jul-18 09:29N 59°56' E 030°17'0 0.0
2014-Jul-18 08:32N 59°56' E 030°17'  
Track history (hours):
 
Tides and Currents Weather Stations Pressure Air Temp Water Temp Dewpoint Dewpoint Depression Visibility Wind Speed Wind Dir Waves Ship Positions

Le Boreal

Last reported at 2014-Jul-28 08:29 UTC. Time now 2014-Aug-01 13:59 UTC.
Position N 66°35' E 012°59'.

Length 142 m; draft 5 m.

Type: Passenger vessel. MMSI: 578000500.

Date/timePositionNaut miles runAvg speedWind from/ knotsBaromVisibWave heightAir tempDewpointWater temp
2014-Jul-28 08:29N 66°35' E 012°59'4 3.8
2014-Jul-28 07:30N 66°31' E 012°58'8 8.1
2014-Jul-28 06:32N 66°23' E 012°58'88 3.6
2014-Jul-27 06:22N 65°01' E 011°41'1012.6
2014-Jul-27 05:33N 64°55' E 011°23'  
2014-Jul-23 16:33N 60°24' E 005°17'1 1.1
2014-Jul-23 15:32N 60°24' E 005°19'0 0.0
2014-Jul-23 14:32N 60°24' E 005°19'0 0.0
2014-Jul-23 13:32N 60°24' E 005°19'0 0.0
2014-Jul-23 12:32N 60°24' E 005°19'0 0.0
2014-Jul-23 11:32N 60°24' E 005°19'0 0.0
2014-Jul-23 10:26N 60°24' E 005°19'0 0.0
2014-Jul-23 09:32N 60°24' E 005°19'0 0.0
2014-Jul-23 08:32N 60°24' E 005°19'0 0.0
2014-Jul-23 07:32N 60°24' E 005°19'0 0.0
2014-Jul-23 06:32N 60°24' E 005°19'77 9.2
2014-Jul-22 22:10N 59°08' E 004°51'913.7
2014-Jul-22 21:32N 59°00' E 004°57'1313.3
2014-Jul-22 20:33N 58°48' E 005°06'1713.3
2014-Jul-22 19:16N 58°32' E 005°16'1313.6
2014-Jul-22 18:19N 58°21' E 005°29'911.4
2014-Jul-22 17:33N 58°15' E 005°41'1110.8
2014-Jul-22 16:33N 58°08' E 005°57'7213.3
2014-Jul-22 11:08N 57°48' E 008°08'6613.2
2014-Jul-22 06:08N 57°49' E 010°12'813.1
2014-Jul-22 05:33N 57°48' E 010°26'1312.7
2014-Jul-22 04:33N 57°46' E 010°50'1413.7
2014-Jul-22 03:33N 57°36' E 011°08'1313.3
2014-Jul-22 02:33N 57°27' E 011°26'1413.9
2014-Jul-22 01:33N 57°14' E 011°35'1413.7
2014-Jul-22 00:33N 57°01' E 011°44'1414.0
2014-Jul-21 23:34N 56°48' E 011°52'1514.8
2014-Jul-21 22:32N 56°33' E 011°59'1414.2
2014-Jul-21 21:33N 56°20' E 012°05'1313.1
2014-Jul-21 20:33N 56°11' E 012°23'414.1
2014-Jul-21 20:18N 56°09' E 012°28'1114.7
2014-Jul-21 19:33N 56°01' E 012°41'1313.5
2014-Jul-21 18:33N 55°48' E 012°42'7 7.1
2014-Jul-21 17:33N 55°41' E 012°36'0 0.0
2014-Jul-21 16:33N 55°41' E 012°36'0 0.0
2014-Jul-21 15:32N 55°41' E 012°36'0 0.0
2014-Jul-21 14:32N 55°41' E 012°36'0 0.0
2014-Jul-21 13:32N 55°41' E 012°36'0 0.0
2014-Jul-21 12:32N 55°41' E 012°36'0 0.0
2014-Jul-21 11:32N 55°41' E 012°36'0 0.0
2014-Jul-21 10:32N 55°41' E 012°36'0 0.0
2014-Jul-21 09:32N 55°41' E 012°36'0 0.0
2014-Jul-21 08:32N 55°41' E 012°36'0 0.0
2014-Jul-21 07:32N 55°41' E 012°36'0 0.0
2014-Jul-21 06:32N 55°41' E 012°36'0 0.0
2014-Jul-21 05:30N 55°41' E 012°36'1 1.4
2014-Jul-21 04:33N 55°42' E 012°38'1211.6
2014-Jul-21 03:33N 55°31' E 012°43'1211.7
2014-Jul-21 02:33N 55°19' E 012°42'1212.2
2014-Jul-21 01:33N 55°15' E 013°02'1413.6
2014-Jul-21 00:32N 55°14' E 013°27'1313.7
2014-Jul-20 23:33N 55°14' E 013°50'1413.9
2014-Jul-20 22:33N 55°13' E 014°14'1313.3
2014-Jul-20 21:33N 55°23' E 014°31'1313.1
2014-Jul-20 20:33N 55°31' E 014°49'1313.3
2014-Jul-20 19:33N 55°38' E 015°09'1413.5
2014-Jul-20 18:33N 55°44' E 015°30'1413.7
2014-Jul-20 17:33N 55°51' E 015°51'1413.7
2014-Jul-20 16:33N 55°58' E 016°12'18613.8
2014-Jul-20 03:03N 58°03' E 020°25'167 7.1
2014-Jul-19 03:30N 59°39' E 024°49'2412.4
2014-Jul-19 01:33N 59°50' E 025°32'2914.4
2014-Jul-18 23:34N 60°00' E 026°26'1514.8
2014-Jul-18 22:34N 59°60' E 026°55'1514.6
2014-Jul-18 21:33N 60°05' E 027°23'1514.8
2014-Jul-18 20:33N 60°11' E 027°49'7512.5
2014-Jul-18 14:33N 59°55' E 030°16'1 1.2
2014-Jul-18 13:32N 59°56' E 030°17'0 0.0
2014-Jul-18 12:32N 59°56' E 030°17'0 0.0
2014-Jul-18 11:32N 59°56' E 030°17'0 0.0
2014-Jul-18 10:32N 59°56' E 030°17'0 0.0
2014-Jul-18 09:29N 59°56' E 030°17'0 0.0
2014-Jul-18 08:32N 59°56' E 030°17'  

Dump ship's entire track history